Location: Newark
(53.3469°N, 7.1606°E)
Time: 19:27:42
(UTC+00:00)

N. Korean satellite - Pass Details

Date: 14 November 2019
Orbit: 456 x 506 km, 97.2° (Epoch: 05 December)

Event Time Altitude Azimuth Distance (km) Brightness Sun altitude
Rises 17:20:13 0° 199° (SSW) 2,550 10.6 -15.2°
Reaches altitude 10° 17:22:36 10° 215° (SW) 1,684 9.9 -15.6°
Maximum altitude 17:25:29 22° 268° (W) 1,127 9.4 -16.0°
Drops below altitude 10° 17:28:26 10° 321° (NW) 1,716 9.7 -16.4°
Sets 17:30:54 0° 337° (NNW) 2,613 10.5 -16.8°
